FW4639 Weather Reports


time (UTC)temp
C
wind
direction
speed
KPH
gust
KPH
rain 1hr
cm
rain 24hr
cm
rain mn
cm
humidity
%
barometer
mb
20260505083013 12 94 0.0 0.0 0.00 0.00 0.00 80 1016.3
20260505081511 12 94 0.0 0.0 0.00 0.00 0.00 79 1016.4
20260505080008 13 94 0.0 0.0 0.00 0.00 0.00 78 1016.2
20260505074506 13 94 0.0 0.0 0.00 0.00 0.00 77 1016.2
20260505073012 13 94 0.0 0.0 0.00 0.00 0.00 76 1016.0
20260505071501 13 94 0.0 0.0 0.00 0.00 0.00 75 1016.1
20260505070101 14 94 0.0 0.0 0.00 0.00 0.00 75 1016.0
20260505064557 15 94 0.0 0.0 0.00 0.00 0.00 74 1016.0
20260505063109 15 93 0.0 0.0 0.00 0.00 0.00 73 1016.0
20260505061552 15 93 0.0 0.0 0.00 0.00 0.00 73 1015.9
20260505060051 15 84 0.0 0.0 0.00 0.00 0.00 72 1016.0
20260505054550 15 84 0.0 0.0 0.00 0.00 0.00 72 1016.0
20260505053049 15 84 0.0 0.0 0.00 0.00 0.00 71 1016.1
20260505051546 16 197 0.0 0.0 0.00 0.00 0.00 71 1016.3
20260505041539 16 145 0.0 0.0 0.00 0.00 0.00 68 1016.2
20260505040037 17 146 0.0 0.0 0.00 0.00 0.00 68 1016.3
20260505034538 17 122 0.0 1.6 0.00 0.00 0.00 67 1016.2
20260505033036 17 198 0.0 0.0 0.00 0.00 0.00 66 1016.2
20260505031538 17 125 0.0 1.6 0.00 0.00 0.00 66 1016.2
20260505030034 18 122 0.0 0.0 0.00 0.00 0.00 65 1016.2
20260505024533 18 179 0.0 1.6 0.00 0.00 0.00 64 1016.2
20260505023036 18 122 0.0 0.0 0.00 0.00 0.00 62 1016.1
20260505021536 18 126 0.0 1.6 0.00 0.00 0.00 60 1016.0
20260505020037 19 120 0.0 1.6 0.00 0.00 0.00 55 1016.0
20260505014531 19 153 0.0 0.0 0.00 0.00 0.00 51 1015.8
20260505013032 19 157 0.0 0.0 0.00 0.00 0.00 50 1015.5
20260505011535 19 157 0.0 0.0 0.00 0.00 0.00 49 1015.3
20260505010048 20 157 0.0 0.0 0.00 0.00 0.00 48 1015.1
20260505004528 20 157 0.0 0.0 0.00 0.00 0.00 47 1014.8
20260505003032 20 158 0.0 0.0 0.00 0.00 0.00 46 1014.8
20260505001527 21 158 0.0 0.0 0.00 0.00 0.00 44 1014.5
20260505000040 22 158 0.0 0.0 0.00 0.00 0.00 42 1014.5
20260504234526 22 157 0.0 1.6 0.00 0.00 0.00 40 1014.4
20260504233026 23 148 0.0 1.6 0.00 0.00 0.00 38 1014.1
20260504231524 23 141 0.0 1.6 0.00 0.00 0.00 37 1014.1
20260504230037 23 141 0.0 0.0 0.00 0.00 0.00 34 1014.1
20260504224524 24 164 0.0 0.0 0.00 0.00 0.00 34 1014.0
20260504223022 24 141 0.0 0.0 0.00 0.00 0.00 33 1014.1
20260504221537 25 84 0.0 0.0 0.00 0.00 0.00 33 1014.2
20260504220023 25 156 0.0 1.6 0.00 0.00 0.00 32 1014.1
20260504214518 25 214 0.0 4.8 0.00 0.00 0.00 32 1014.2
20260504213017 25 257 0.0 1.6 0.00 0.00 0.00 34 1014.2
20260504211515 25 63 0.0 3.2 0.00 0.00 0.00 33 1014.3
20260504210020 25 267 0.0 3.2 0.00 0.00 0.00 32 1014.3
20260504204514 25 251 0.0 6.4 0.00 0.00 0.00 32 1014.4
20260504203013 25 164 0.0 3.2 0.00 0.00 0.00 34 1014.5
20260504201510 25 250 0.0 3.2 0.00 0.00 0.00 34 1014.6
20260504200008 25 238 0.0 3.2 0.00 0.00 0.00 34 1014.7
20260504194506 25 225 0.0 3.2 0.00 0.00 0.00 35 1014.8
20260504193006 25 195 0.0 4.8 0.00 0.00 0.00 35 1015.0
20260504191503 24 224 0.0 6.4 0.00 0.00 0.00 34 1015.1
20260504190001 24 229 0.0 6.4 0.00 0.00 0.00 32 1015.4
20260504184558 24 214 0.0 3.2 0.00 0.00 0.00 33 1015.6
20260504183057 23 264 0.0 4.8 0.00 0.00 0.00 34 1015.7
20260504181556 23 229 0.0 6.4 0.00 0.00 0.00 34 1016.0
20260504180053 23 223 0.0 4.8 0.00 0.00 0.00 34 1016.0
20260504174552 23 252 0.0 3.2 0.00 0.00 0.00 34 1016.2
20260504173049 23 251 0.0 4.8 0.00 0.00 0.00 36 1016.4
20260504171545 23 280 0.0 3.2 0.00 0.00 0.00 40 1016.8